When you browse on this site, cookies collect data to enhance your experience and personalize the content and advertising you see.
Visit our Privacy Policy to learn more. By continuing to use the site, you agree to this use of cookies and data.
  • Em Portugal
  • Lista de países
  • Para 7 dias
  • Temperatura da água
  • Mapas de satélite
  • Mapa do tempo
  • Widgets de tempo
  • user-avatar
    Iniciar Sessão

    Previsão horária em Ovsyankino

    Hoje, 23 Julho, Terça-feira

    Tempo Temperatura Precipitação Vento Pressão Humidade
    00:00 +16°C° 0 mm 1 m/s 741 mmHg 87%
    01:00 +16°C° 0 mm 1 m/s 740 mmHg 89%
    02:00 +16°C° 0 mm 1 m/s 740 mmHg 91%
    03:00 +16°C° 0.1 mm 1 m/s 740 mmHg 92%
    04:00 +16°C° 0.1 mm 1 m/s 740 mmHg 92%
    05:00 +16°C° 0.1 mm 1 m/s 740 mmHg 92%
    06:00 +16°C° 0.1 mm 1 m/s 740 mmHg 91%
    07:00 +17°C° 0.1 mm 2 m/s 740 mmHg 90%
    08:00 +18°C° 0.1 mm 2 m/s 740 mmHg 89%
    09:00 +18°C° 0.5 mm 2 m/s 740 mmHg 87%
    10:00 +19°C° 0.5 mm 2 m/s 740 mmHg 85%
    11:00 +20°C° 0.5 mm 2 m/s 740 mmHg 84%
    12:00 +20°C° 0.7 mm 2 m/s 740 mmHg 84%
    13:00 +20°C° 0.7 mm 2 m/s 740 mmHg 83%
    14:00 +20°C° 0.7 mm 2 m/s 740 mmHg 83%
    15:00 +20°C° 0.2 mm 2 m/s 740 mmHg 83%
    16:00 +20°C° 0.2 mm 2 m/s 740 mmHg 82%
    17:00 +20°C° 0.2 mm 2 m/s 740 mmHg 81%
    18:00 +19°C° 0.3 mm 2 m/s 740 mmHg 85%
    19:00 +18°C° 0.3 mm 2 m/s 740 mmHg 89%
    20:00 +17°C° 0.3 mm 2 m/s 740 mmHg 93%
    21:00 +16°C° 0 mm 2 m/s 740 mmHg 93%
    22:00 +16°C° 0 mm 2 m/s 740 mmHg 94%
    23:00 +15°C° 0 mm 2 m/s 740 mmHg 94%

    Amanhã, 24 Julho, Quarta-feira

    Tempo Temperatura Precipitação Vento Pressão Humidade
    00:00 +15°C° 0 mm 2 m/s 740 mmHg 95%
    01:00 +14°C° 0 mm 2 m/s 740 mmHg 95%
    02:00 +14°C° 0 mm 2 m/s 740 mmHg 96%
    03:00 +14°C° 0 mm 2 m/s 740 mmHg 95%
    04:00 +14°C° 0 mm 2 m/s 740 mmHg 94%
    05:00 +14°C° 0 mm 2 m/s 740 mmHg 93%
    06:00 +15°C° 0 mm 2 m/s 741 mmHg 86%
    07:00 +17°C° 0 mm 3 m/s 741 mmHg 79%
    08:00 +19°C° 0 mm 3 m/s 741 mmHg 73%
    09:00 +20°C° 0 mm 3 m/s 741 mmHg 65%
    10:00 +22°C° 0 mm 3 m/s 741 mmHg 57%
    11:00 +23°C° 0 mm 4 m/s 741 mmHg 49%
    12:00 +25°C° 0 mm 4 m/s 741 mmHg 48%
    13:00 +25°C° 0 mm 4 m/s 741 mmHg 47%
    14:00 +25°C° 0 mm 4 m/s 741 mmHg 45%
    15:00 +25°C° 0 mm 4 m/s 741 mmHg 48%
    16:00 +23°C° 0 mm 4 m/s 741 mmHg 50%
    17:00 +23°C° 0 mm 4 m/s 741 mmHg 53%
    18:00 +21°C° 0 mm 4 m/s 741 mmHg 59%
    19:00 +19°C° 0 mm 4 m/s 741 mmHg 65%
    20:00 +17°C° 0 mm 3 m/s 741 mmHg 71%
    21:00 +17°C° 0 mm 3 m/s 741 mmHg 73%
    22:00 +16°C° 0 mm 3 m/s 741 mmHg 75%
    23:00 +14°C° 0 mm 3 m/s 741 mmHg 77%

    Depois de amanhã, 25 Julho, Quinta-feira

    Tempo Temperatura Precipitação Vento Pressão Humidade
    00:00 +14°C° 0 mm 3 m/s 741 mmHg 79%
    01:00 +13°C° 0 mm 3 m/s 741 mmHg 82%
    02:00 +13°C° 0 mm 3 m/s 740 mmHg 84%
    03:00 +13°C° 0.1 mm 3 m/s 740 mmHg 86%
    04:00 +12°C° 0.1 mm 3 m/s 740 mmHg 87%
    05:00 +12°C° 0.1 mm 3 m/s 740 mmHg 88%
    06:00 +13°C° 1.3 mm 3 m/s 740 mmHg 91%
    07:00 +13°C° 1.3 mm 3 m/s 740 mmHg 94%
    08:00 +14°C° 1.3 mm 2 m/s 740 mmHg 97%
    09:00 +14°C° 0.9 mm 2 m/s 740 mmHg 97%
    10:00 +15°C° 0.9 mm 2 m/s 741 mmHg 96%
    11:00 +16°C° 0.9 mm 2 m/s 741 mmHg 96%
    12:00 +17°C° 0.2 mm 2 m/s 741 mmHg 92%
    13:00 +18°C° 0.2 mm 2 m/s 741 mmHg 89%
    14:00 +20°C° 0.2 mm 2 m/s 741 mmHg 85%
    15:00 +20°C° 0.7 mm 2 m/s 741 mmHg 87%
    16:00 +20°C° 0.7 mm 2 m/s 741 mmHg 88%
    17:00 +20°C° 0.7 mm 2 m/s 741 mmHg 89%
    18:00 +19°C° 1 mm 2 m/s 742 mmHg 91%
    19:00 +18°C° 1 mm 3 m/s 742 mmHg 94%
    20:00 +18°C° 1 mm 3 m/s 742 mmHg 96%
    21:00 +17°C° 0.2 mm 3 m/s 742 mmHg 96%
    22:00 +17°C° 0.2 mm 3 m/s 742 mmHg 97%
    23:00 +17°C° 0.2 mm 3 m/s 743 mmHg 97%

    26 Julho, Sexta-feira

    Tempo Temperatura Precipitação Vento Pressão Humidade
    00:00 +17°C° 0 mm 3 m/s 743 mmHg 97%
    01:00 +17°C° 0 mm 3 m/s 743 mmHg 97%
    02:00 +17°C° 0 mm 4 m/s 743 mmHg 97%
    03:00 +17°C° 0 mm 3 m/s 743 mmHg 97%
    04:00 +17°C° 0 mm 3 m/s 744 mmHg 97%
    05:00 +17°C° 0 mm 3 m/s 744 mmHg 96%
    06:00 +18°C° 0 mm 3 m/s 744 mmHg 93%
    07:00 +19°C° 0 mm 4 m/s 744 mmHg 90%
    08:00 +20°C° 0 mm 4 m/s 744 mmHg 87%
    09:00 +22°C° 0 mm 4 m/s 744 mmHg 78%
    10:00 +23°C° 0 mm 4 m/s 745 mmHg 70%
    11:00 +26°C° 0 mm 4 m/s 745 mmHg 62%
    12:00 +26°C° 0 mm 4 m/s 745 mmHg 59%
    13:00 +27°C° 0 mm 4 m/s 744 mmHg 57%
    14:00 +27°C° 0 mm 4 m/s 744 mmHg 55%
    15:00 +27°C° 0.1 mm 4 m/s 744 mmHg 59%
    16:00 +26°C° 0.1 mm 4 m/s 744 mmHg 64%
    17:00 +26°C° 0.1 mm 3 m/s 744 mmHg 69%
    18:00 +24°C° 0 mm 3 m/s 744 mmHg 75%
    19:00 +23°C° 0 mm 2 m/s 744 mmHg 82%
    20:00 +20°C° 0 mm 2 m/s 745 mmHg 88%
    21:00 +19°C° 0 mm 2 m/s 745 mmHg 91%
    22:00 +19°C° 0 mm 2 m/s 745 mmHg 93%
    23:00 +18°C° 0 mm 2 m/s 745 mmHg 95%

    27 Julho, Sábado

    Tempo Temperatura Precipitação Vento Pressão Humidade
    00:00 +18°C° 0 mm 2 m/s 745 mmHg 95%
    01:00 +17°C° 0 mm 2 m/s 745 mmHg 96%
    02:00 +17°C° 0 mm 2 m/s 744 mmHg 96%
    03:00 +17°C° 0 mm 2 m/s 744 mmHg 95%
    04:00 +17°C° 0 mm 2 m/s 745 mmHg 95%
    05:00 +17°C° 0 mm 2 m/s 745 mmHg 94%
    06:00 +19°C° 0 mm 2 m/s 745 mmHg 86%
    07:00 +21°C° 0 mm 2 m/s 745 mmHg 78%
    08:00 +24°C° 0 mm 3 m/s 745 mmHg 70%
    09:00 +25°C° 0 mm 3 m/s 745 mmHg 64%
    10:00 +26°C° 0 mm 3 m/s 744 mmHg 58%
    11:00 +28°C° 0 mm 3 m/s 744 mmHg 52%
    12:00 +28°C° 0 mm 3 m/s 744 mmHg 51%
    13:00 +28°C° 0 mm 3 m/s 744 mmHg 49%
    14:00 +29°C° 0 mm 3 m/s 743 mmHg 48%
    15:00 +28°C° 0 mm 2 m/s 743 mmHg 52%
    16:00 +28°C° 0 mm 2 m/s 743 mmHg 56%
    17:00 +28°C° 0 mm 2 m/s 743 mmHg 60%
    18:00 +26°C° 0 mm 2 m/s 742 mmHg 68%
    19:00 +24°C° 0 mm 2 m/s 742 mmHg 76%
    20:00 +21°C° 0 mm 2 m/s 742 mmHg 84%
    21:00 +20°C° 0 mm 2 m/s 742 mmHg 87%
    22:00 +19°C° 0 mm 2 m/s 742 mmHg 89%
    23:00 +19°C° 0 mm 2 m/s 742 mmHg 92%

    28 Julho, Domingo

    Tempo Temperatura Precipitação Vento Pressão Humidade
    00:00 +18°C° 0 mm 2 m/s 742 mmHg 92%
    01:00 +18°C° 0 mm 2 m/s 742 mmHg 91%
    02:00 +17°C° 0 mm 2 m/s 741 mmHg 91%
    03:00 +17°C° 0 mm 2 m/s 741 mmHg 91%
    04:00 +17°C° 0 mm 2 m/s 741 mmHg 90%
    05:00 +17°C° 0 mm 2 m/s 741 mmHg 90%
    06:00 +18°C° 0 mm 3 m/s 741 mmHg 86%
    07:00 +19°C° 0 mm 3 m/s 742 mmHg 83%
    08:00 +20°C° 0 mm 3 m/s 742 mmHg 79%
    09:00 +21°C° 0 mm 3 m/s 742 mmHg 74%
    10:00 +21°C° 0 mm 4 m/s 742 mmHg 68%
    11:00 +21°C° 0 mm 4 m/s 743 mmHg 62%
    12:00 +22°C° 0 mm 4 m/s 742 mmHg 57%
    13:00 +22°C° 0 mm 4 m/s 742 mmHg 52%
    14:00 +23°C° 0 mm 4 m/s 742 mmHg 46%
    15:00 +22°C° 0 mm 4 m/s 742 mmHg 46%
    16:00 +21°C° 0 mm 4 m/s 742 mmHg 46%
    17:00 +21°C° 0 mm 4 m/s 742 mmHg 45%
    18:00 +19°C° 0 mm 3 m/s 742 mmHg 53%
    19:00 +17°C° 0 mm 3 m/s 743 mmHg 60%
    20:00 +15°C° 0 mm 2 m/s 743 mmHg 67%
    21:00 +14°C° 0 mm 2 m/s 743 mmHg 69%
    22:00 +12°C° 0 mm 2 m/s 743 mmHg 71%
    23:00 +10°C° 0 mm 2 m/s 744 mmHg 72%
    Mostrar mais